Waarnemingen

Advertentie
Mijn weer
Porto Colom, Spanje (8309): temperatuur & dauwpunt: 21.02.2020 02:00:00 - 27.02.2020 02:00:00 (CET)Porto Colom, Spanje (8309): windsnelheid & windstoten: 21.02.2020 02:00:00 - 27.02.2020 02:00:00 (CET)Porto Colom, Spanje (8309): windrichting: 21.02.2020 02:00:00 - 27.02.2020 02:00:00 (CET)Porto Colom, Spanje (8309): luchtdruk: 21.02.2020 02:00:00 - 27.02.2020 02:00:00 (CET)Porto Colom, Spanje (8309): zicht: 21.02.2020 02:00:00 - 27.02.2020 02:00:00 (CET)Porto Colom, Spanje (8309): Zonneschijnduur: 21.02.2020 02:00:00 - 27.02.2020 02:00:00 (CET)Porto Colom, Spanje (8309): neerslag: 21.02.2020 02:00:00 - 27.02.2020 02:00:00 (CET)
Datum & Tijd tt [°C] td [°C] ff [km/u] ff [kn] fx [km/u] fx [kn] dd ppp [hPa] vv [km] sd [min] rr [mm]
27.02.2020 02:00:00 10,3 2,9 8 4 16 9 NNW 1019,8 20 0 0,0
27.02.2020 01:00:00 10,0 3,8 8 4 13 7 NNO 1019,9 20 0 -
27.02.2020 00:00:00 11,6 2,1 4 2 14 8 WNW 1019,8 20 0 0,0
26.02.2020 23:00:00 12,0 3,2 5 3 13 7 W 1019,2 20 0 0,0
26.02.2020 22:00:00 11,0 4,5 8 4 13 7 NW 1019,1 20 0 0,0
26.02.2020 21:00:00 11,6 2,7 9 5 11 6 N 1018,4 20 0 0,0
26.02.2020 20:00:00 13,3 2,9 5 3 25 13 NNW 1018,2 20 0 0,0
26.02.2020 19:00:00 14,9 2,1 6 3 29 15 O 1017,2 20 25 -
26.02.2020 18:00:00 16,4 2,7 16 9 38 21 NW 1016,1 20 60 0,0
26.02.2020 17:00:00 17,1 2,3 24 13 38 20 NNW 1015,6 20 60 0,0
26.02.2020 16:00:00 18,3 3,0 18 10 40 22 NNW 1014,9 20 60 0,0
26.02.2020 15:00:00 19,7 3,0 14 8 36 19 NW 1014,7 20 60 0,0
26.02.2020 14:00:00 19,3 2,1 14 7 39 21 NW 1014,8 20 60 0,0
26.02.2020 13:00:00 18,4 3,0 22 12 49 26 NW 1015,2 20 60 -
26.02.2020 12:00:00 17,5 2,3 24 13 48 26 NW 1015,5 20 42 0,0
26.02.2020 11:00:00 16,7 4,1 21 11 38 21 NW 1015,4 20 51 0,0
26.02.2020 10:00:00 17,0 3,9 14 8 33 18 WNW 1015,5 20 29 0,0
26.02.2020 09:00:00 15,6 6,8 17 9 32 18 NNW 1015,2 20 49 0,0
26.02.2020 08:00:00 13,8 7,3 11 6 24 13 WNW 1014,9 20 3 0,0
26.02.2020 07:00:00 13,1 6,8 9 5 17 9 WNW 1014,1 20 0 -
26.02.2020 06:00:00 13,0 7,0 6 3 13 7 WNW 1014,0 20 0 0,0
26.02.2020 05:00:00 14,3 7,1 9 5 19 11 WNW 1013,9 20 0 0,0
26.02.2020 04:00:00 14,5 6,8 11 6 29 16 WNW 1013,9 20 0 0,0
26.02.2020 03:00:00 13,3 7,1 11 6 21 11 NW 1014,5 20 0 0,0
26.02.2020 02:00:00 12,8 9,3 8 4 14 8 WNW 1014,7 19 0 0,0
26.02.2020 01:00:00 13,2 10,2 8 5 20 11 WZW 1015,0 14 0 -
26.02.2020 00:00:00 13,0 9,8 6 4 13 7 W 1015,1 19 0 0,0
25.02.2020 23:00:00 13,3 9,9 4 2 11 6 W 1015,7 20 0 0,0
25.02.2020 22:00:00 13,5 10,3 7 4 11 6 W 1015,4 20 0 0,0
25.02.2020 21:00:00 13,0 10,2 7 4 10 6 N 1015,4 20 0 0,0
25.02.2020 20:00:00 14,3 11,1 10 5 11 6 ZW 1014,6 20 0 0,0
25.02.2020 19:00:00 15,2 11,6 4 2 8 4 NNO 1014,5 20 0 -
25.02.2020 18:00:00 15,9 10,9 6 3 22 12 NO 1014,0 20 31 0,0
25.02.2020 17:00:00 17,2 11,0 13 7 30 16 NO 1013,9 20 60 0,0
25.02.2020 16:00:00 21,9 10,4 8 5 24 13 WNW 1013,2 20 60 0,0
25.02.2020 15:00:00 20,3 11,2 12 6 29 16 W 1013,6 20 56 0,0
25.02.2020 14:00:00 18,6 12,3 16 8 31 17 W 1014,4 20 42 0,0
25.02.2020 13:00:00 18,8 13,0 14 8 28 15 W 1015,4 16 57 -
25.02.2020 12:00:00 18,2 12,4 16 9 31 17 WZW 1016,4 16 60 0,0
25.02.2020 11:00:00 16,8 12,7 16 8 29 16 WZW 1016,2 20 60 0,0
25.02.2020 10:00:00 15,6 12,7 14 8 29 15 W 1016,9 18 23 0,0
25.02.2020 09:00:00 13,9 11,9 9 5 20 11 W 1016,9 19 2 0,0
25.02.2020 08:00:00 13,0 11,4 13 7 23 12 W 1016,7 19 0 0,0
25.02.2020 07:00:00 12,2 11,0 8 4 23 12 W 1017,0 18 0 -
25.02.2020 06:00:00 11,7 10,4 15 8 21 12 W 1017,2 12 0 0,0
25.02.2020 05:00:00 12,2 10,8 13 7 18 10 W 1017,7 13 0 0,0
25.02.2020 04:00:00 11,9 10,5 12 7 16 9 W 1018,1 14 0 0,0
25.02.2020 03:00:00 12,0 10,4 10 5 16 8 W 1019,1 20 0 0,0
25.02.2020 02:00:00 12,1 10,2 9 5 17 9 W 1020,1 20 0 0,0
25.02.2020 01:00:00 12,3 10,0 14 8 20 11 W 1020,6 20 0 -
25.02.2020 00:00:00 12,0 10,0 9 5 15 8 W 1021,1 20 0 0,0
24.02.2020 23:00:00 12,2 9,9 11 6 14 8 W 1021,5 20 0 0,0
24.02.2020 22:00:00 12,3 9,7 5 3 17 9 ZW 1022,1 20 0 0,0
24.02.2020 21:00:00 12,6 8,3 6 3 25 13 NW 1022,3 20 0 0,0
24.02.2020 20:00:00 13,5 7,7 15 8 25 13 W 1022,5 20 0 0,0
24.02.2020 19:00:00 14,3 8,9 14 8 24 13 W 1022,7 20 25 -
24.02.2020 18:00:00 17,0 9,4 14 8 27 15 WZW 1022,6 20 60 0,0
24.02.2020 17:00:00 19,2 5,3 13 7 26 14 W 1022,8 20 60 0,0
24.02.2020 16:00:00 20,3 5,1 14 8 32 17 WZW 1023,5 20 60 0,0
24.02.2020 15:00:00 21,1 0,2 22 12 33 18 W 1024,1 20 60 0,0
24.02.2020 14:00:00 21,4 1,1 19 10 30 16 W 1025,1 20 60 0,0
24.02.2020 13:00:00 20,3 7,7 12 7 24 13 ZW 1026,1 20 60 -
24.02.2020 12:00:00 18,4 6,8 11 6 22 12 WZW 1027,0 20 60 0,0
24.02.2020 11:00:00 16,9 10,5 16 9 22 12 ZW 1027,4 20 60 0,0
24.02.2020 10:00:00 15,7 11,9 2 1 12 7 O 1027,8 20 60 0,0
24.02.2020 09:00:00 12,4 10,4 2 1 10 5 WNW 1027,9 20 60 0,0
24.02.2020 08:00:00 8,5 7,1 5 3 10 5 WNW 1027,8 20 3 0,0
24.02.2020 07:00:00 7,5 6,1 6 4 11 6 NNW 1027,7 20 0 -
24.02.2020 06:00:00 8,6 7,3 5 3 9 5 NW 1028,0 20 0 0,0
24.02.2020 05:00:00 9,0 7,6 3 2 8 4 W 1028,2 20 0 0,0
24.02.2020 04:00:00 9,5 7,6 6 4 10 6 NW 1028,7 20 0 0,0
24.02.2020 03:00:00 9,2 7,8 4 2 9 5 W 1029,6 20 0 0,0
24.02.2020 02:00:00 8,8 7,4 9 5 11 6 N 1030,0 20 0 0,0
24.02.2020 01:00:00 10,4 8,8 3 2 7 4 ZW 1030,6 20 0 -
24.02.2020 00:00:00 12,4 9,9 7 4 11 6 O 1030,8 20 0 0,0
23.02.2020 23:00:00 11,8 9,6 4 2 9 5 NNO 1030,8 20 0 0,0
23.02.2020 22:00:00 12,9 10,3 4 2 19 10 WZW 1030,7 20 0 0,0
23.02.2020 21:00:00 13,1 10,6 7 4 15 8 ZW 1030,6 20 0 0,0
23.02.2020 20:00:00 13,1 8,5 5 3 22 12 WZW 1030,7 20 0 0,0
23.02.2020 19:00:00 14,2 9,2 16 9 23 13 W 1030,7 20 24 -
23.02.2020 18:00:00 16,5 11,7 11 6 23 12 W 1030,7 20 60 0,0
23.02.2020 17:00:00 16,4 13,4 21 11 29 16 ZW 1031,0 20 60 0,0
23.02.2020 16:00:00 16,6 12,7 25 13 31 17 ZW 1031,2 20 60 0,0
23.02.2020 15:00:00 16,8 12,1 23 13 28 15 ZZW 1031,7 20 60 0,0
23.02.2020 14:00:00 17,0 12,3 21 11 24 13 ZZW 1032,5 20 60 0,0
23.02.2020 13:00:00 16,7 12,4 16 9 22 12 ZZW 1033,5 20 60 -
23.02.2020 12:00:00 16,1 12,2 16 8 21 11 ZZW 1034,0 20 60 0,0
23.02.2020 11:00:00 15,5 12,4 15 8 18 10 ZZW 1034,1 20 60 0,0
23.02.2020 10:00:00 14,5 12,2 3 1 5 3 Z 1033,9 20 60 0,0
23.02.2020 09:00:00 10,8 9,9 4 2 8 5 NNW 1033,8 20 60 0,0
23.02.2020 08:00:00 8,0 7,1 3 2 7 4 N 1033,4 20 1 0,0
23.02.2020 07:00:00 8,2 7,3 7 4 13 7 N 1032,8 18 0 -
23.02.2020 06:00:00 8,5 7,3 8 4 11 6 NNO 1032,5 20 0 0,0
23.02.2020 05:00:00 10,1 8,7 3 2 16 9 N 1032,3 20 0 0,0
23.02.2020 04:00:00 9,7 8,7 7 4 11 6 NW 1032,4 20 0 0,0
23.02.2020 03:00:00 9,9 8,8 8 5 10 6 NNW 1033,0 18 0 0,0
23.02.2020 02:00:00 10,5 9,4 8 4 9 5 N 1033,7 17 0 0,0
23.02.2020 01:00:00 10,5 9,4 8 5 10 5 N 1033,9 17 0 -
23.02.2020 00:00:00 10,2 9,2 8 4 10 6 N 1034,1 17 0 0,0
22.02.2020 23:00:00 10,6 9,3 7 4 9 5 N 1033,9 18 0 0,0
22.02.2020 22:00:00 10,5 9,0 7 4 16 9 N 1033,6 20 0 0,0
22.02.2020 21:00:00 11,0 9,4 6 3 12 7 N 1033,4 20 0 0,0
22.02.2020 20:00:00 12,8 10,5 4 2 13 7 N 1033,0 20 0 0,0
22.02.2020 19:00:00 14,3 11,2 10 5 18 10 ONO 1032,9 20 23 -
22.02.2020 18:00:00 15,2 11,3 11 6 22 12 ONO 1032,3 20 60 0,0
22.02.2020 17:00:00 16,7 10,8 13 7 28 15 NNO 1031,6 20 60 0,0
22.02.2020 16:00:00 18,8 8,4 14 7 36 20 WZW 1031,1 20 60 0,0
22.02.2020 15:00:00 17,6 11,7 26 14 33 18 ZW 1031,3 20 60 0,0
22.02.2020 14:00:00 17,6 12,7 20 11 28 15 ZW 1032,1 20 60 0,0
22.02.2020 13:00:00 17,4 12,1 16 9 29 16 ZW 1032,6 20 60 -
22.02.2020 12:00:00 16,5 12,6 18 10 26 14 ZZW 1032,7 20 60 0,0
22.02.2020 11:00:00 15,8 11,6 6 4 10 6 Z 1032,4 20 60 0,0
22.02.2020 10:00:00 14,1 10,6 5 3 8 4 O 1032,4 20 60 0,0
22.02.2020 09:00:00 11,2 9,8 2 1 9 5 ONO 1032,0 20 60 0,0
22.02.2020 08:00:00 8,0 7,0 6 4 9 5 NNO 1031,1 20 0 0,0
22.02.2020 07:00:00 8,0 6,8 5 3 8 4 NNO 1030,5 19 0 -
22.02.2020 06:00:00 8,1 6,8 5 3 8 5 NO 1030,0 20 0 0,0
22.02.2020 05:00:00 8,3 7,0 3 2 8 4 W 1029,6 19 0 0,0
22.02.2020 04:00:00 9,3 7,8 4 2 7 4 NNO 1029,7 20 0 0,0
22.02.2020 03:00:00 11,1 9,0 2 1 12 7 OZO 1029,8 20 0 0,0
22.02.2020 02:00:00 11,4 9,2 6 3 16 9 NNW 1029,7 20 0 0,0
22.02.2020 01:00:00 11,3 9,4 8 4 12 6 NNW 1029,6 20 0 -
22.02.2020 00:00:00 10,1 8,5 5 3 10 5 WNW 1029,8 20 0 0,0
21.02.2020 23:00:00 10,3 8,8 6 3 10 6 NW 1029,9 20 0 0,0
21.02.2020 22:00:00 10,6 8,4 4 2 8 4 WNW 1029,8 18 0 0,0
21.02.2020 21:00:00 11,3 8,5 4 2 9 5 NW 1029,7 20 0 0,0
21.02.2020 20:00:00 11,3 8,4 6 3 11 6 NW 1029,7 20 0 0,0
21.02.2020 19:00:00 13,4 8,9 6 3 18 10 N 1029,2 20 16 -
21.02.2020 18:00:00 14,7 8,9 10 5 22 12 ONO 1029,0 20 60 0,0
21.02.2020 17:00:00 15,6 8,8 13 7 29 16 ONO 1028,9 20 60 0,0
21.02.2020 16:00:00 16,1 8,8 16 9 32 17 ONO 1028,8 20 60 0,0
21.02.2020 15:00:00 16,5 9,4 17 9 31 17 ONO 1029,0 20 60 0,0
21.02.2020 14:00:00 16,5 10,2 18 10 37 20 ONO 1029,2 20 60 0,0
21.02.2020 13:00:00 16,8 10,2 18 10 36 19 ONO 1029,8 20 60 -
21.02.2020 12:00:00 16,6 9,3 18 10 35 19 ONO 1030,1 20 60 0,0
21.02.2020 11:00:00 15,8 10,2 8 4 15 8 ONO 1029,9 20 60 0,0
21.02.2020 10:00:00 14,0 10,2 5 3 12 6 N 1029,6 20 60 0,0
21.02.2020 09:00:00 10,9 9,2 8 4 11 6 N 1029,3 20 58 0,0
21.02.2020 08:00:00 8,7 7,1 9 5 11 6 N 1028,4 20 0 0,0
21.02.2020 07:00:00 8,7 7,1 9 5 10 5 N 1027,9 20 0 -
21.02.2020 06:00:00 8,9 7,1 8 4 12 6 N 1027,5 20 0 0,0
21.02.2020 05:00:00 9,6 7,6 10 6 14 7 N 1027,4 20 0 0,0
21.02.2020 04:00:00 9,0 7,3 11 6 18 10 N 1027,6 20 0 0,0
21.02.2020 03:00:00 9,6 7,8 12 7 16 9 N 1027,5 20 0 0,0
21.02.2020 02:00:00 8,5 7,0 10 6 12 7 N 1027,2 20 0 0,0

tt = temperatuur
td = dauwpunt
ff = windsnelheid
fx = windstoten
dd = windrichting
ppp = luchtdruk
vv = zicht
sd = Zonneschijnduur
rr = neerslag

Weerstations in de omgeving